Notices

What's New in latest Release from April 7th, 2021:

- Updated Glossary, including Speed of Maximum Gust, and Total Hourly Precipitation

- Updated national and regional climate services offices contacts and prices information

- Addition of station inventory lists for 1981-2010, 1971-2000, and 1961-1990 Normals.

If you haven't already, please take our survey and provide feedback about our website: https://eccc.sondage-survey.ca/f/LanguageSelection.aspx?s=442ca660-fcf1-47c0-95a9-59707d6fd709

Hourly Data Report for July 27, 2019

TORONTO CITY
ONTARIO
Current Station Operator: ECCC - MSC

43°40'00.000" N
79°24'00.000" W
112.50 m
6158355
71508
XTO

Download Data

Hourly Data (July 2019)
Hourly Data Report for July 27, 2019
TIME
LST
Temp Definition
°C
Dew Point Definition
°C
Rel Hum Definition
%
Precip. Amount Definition
mm

Wind Dir Definition
10's deg

Wind Spd Definition
km/h
Visibility Definition
km
Stn Press Definition
kPa
Hmdx Definition


Wind Chill Definition


Weather Definition


00:00 21.8 15.7 68 0.0       100.93 26   LegendNANA
01:00 21.3 14.6 66 0.0       100.94 25   LegendNANA
02:00 20.5 14.8 70 0.0       100.92     LegendNANA
03:00 20.1 14.8 72 0.0       100.89     LegendNANA
04:00 19.6 14.9 74 0.0       100.88     LegendNANA
05:00 19.7 14.9 74 0.0       100.88     LegendNANA
06:00 19.9 15.3 75 0.0       100.90     LegendNANA
07:00 22.0 16.5 71 0.0       100.90 27   LegendNANA
08:00 23.9 18.0 69 0.0       100.90 30   LegendNANA
09:00 25.0 18.4 67 0.0       100.89 31   LegendNANA
10:00 26.1 17.3 58 0.0       100.88 32   LegendNANA
11:00 27.0 17.3 55 0.0       100.83 32   LegendNANA
12:00 25.5 17.4 61 0.0       100.77 31   LegendNANA
13:00 27.7 17.2 53 0.0       100.66 33   LegendNANA
14:00 26.9 18.4 60 0.0       100.60 33   LegendNANA
15:00 27.6 14.6 45 0.0       100.55 31   LegendNANA
16:00 28.1 14.3 43 0.0       100.48 32   LegendNANA
17:00 26.9 12.8 42 0.0       100.45 30   LegendNANA
18:00 26.6 12.9 43 0.0       100.44 29   LegendNANA
19:00 24.9 13.4 49 0.0       100.42 28   LegendNANA
20:00 25.1 13.9 50 0.0       100.39 28   LegendNANA
21:00 24.3 14.2 53 0.0       100.43 28   LegendNANA
22:00 21.1 17.0 78 1.8       100.36 26   LegendNANA
23:00 21.5 17.5 78 0.0       100.35 27   LegendNANA

Notes on Data Quality.

Legend

  • E = Estimated
  • M = Missing
  • NA = Not Available*
  • [empty] = Indicates an unobserved value
Date modified: